Year,Month,Day,Hour,Minute,Value (Times are PST for temperature in C)
2015,10,05,00,00,7.10
2015,10,05,00,01,7.10
2015,10,05,00,02,7.10
2015,10,05,00,03,7.10
2015,10,05,00,04,7.10
2015,10,05,00,05,7.10
2015,10,05,00,06,7.10
2015,10,05,00,07,7.00
2015,10,05,00,08,7.10
2015,10,05,00,09,7.10
2015,10,05,00,10,7.00
2015,10,05,00,11,7.00
2015,10,05,00,12,7.00
2015,10,05,00,13,7.00
2015,10,05,00,14,6.90
2015,10,05,00,15,6.90
2015,10,05,00,16,6.90
2015,10,05,00,17,6.90
2015,10,05,00,18,6.90
2015,10,05,00,19,6.90
2015,10,05,00,20,6.90
2015,10,05,00,21,6.90
2015,10,05,00,22,6.90
2015,10,05,00,23,6.90
2015,10,05,00,24,7.00
2015,10,05,00,25,7.00
2015,10,05,00,26,7.00
2015,10,05,00,27,7.00
2015,10,05,00,28,7.00
2015,10,05,00,29,7.00
2015,10,05,00,30,7.10
2015,10,05,00,31,7.10
2015,10,05,00,32,7.20
2015,10,05,00,33,7.20
2015,10,05,00,34,7.20
2015,10,05,00,35,7.20
2015,10,05,00,36,7.30
2015,10,05,00,37,7.30
2015,10,05,00,38,7.30
2015,10,05,00,39,7.30
2015,10,05,00,40,7.20
2015,10,05,00,41,7.20
2015,10,05,00,42,7.20
2015,10,05,00,43,7.20
2015,10,05,00,44,7.20
2015,10,05,00,45,7.20
2015,10,05,00,46,7.20
2015,10,05,00,47,7.30
2015,10,05,00,48,7.30
2015,10,05,00,49,7.30
2015,10,05,00,50,7.40
2015,10,05,00,51,7.40
2015,10,05,00,52,7.40
2015,10,05,00,53,7.50
2015,10,05,00,54,7.50
2015,10,05,00,55,7.60
2015,10,05,00,56,7.60
2015,10,05,00,57,7.70
2015,10,05,00,58,7.70
2015,10,05,00,59,7.70
2015,10,05,01,00,7.80
2015,10,05,01,01,7.80
2015,10,05,01,02,7.80
2015,10,05,01,03,7.90
2015,10,05,01,04,7.90
2015,10,05,01,05,7.90
2015,10,05,01,06,7.90
2015,10,05,01,07,7.80
2015,10,05,01,08,7.80
2015,10,05,01,09,7.80
2015,10,05,01,10,7.70
2015,10,05,01,11,7.70
2015,10,05,01,12,7.70
2015,10,05,01,13,7.70
2015,10,05,01,14,7.70
2015,10,05,01,15,7.70
2015,10,05,01,16,7.70
2015,10,05,01,17,7.70
2015,10,05,01,18,7.70
2015,10,05,01,19,7.70
2015,10,05,01,20,7.70
2015,10,05,01,21,7.70
2015,10,05,01,22,7.60
2015,10,05,01,23,7.60
2015,10,05,01,24,7.60
2015,10,05,01,25,7.50
2015,10,05,01,26,7.50
2015,10,05,01,27,7.40
2015,10,05,01,28,7.40
2015,10,05,01,29,7.40
2015,10,05,01,30,7.40
2015,10,05,01,31,7.40
2015,10,05,01,32,7.40
2015,10,05,01,33,7.30
2015,10,05,01,34,7.30
2015,10,05,01,35,7.30
2015,10,05,01,36,7.30
2015,10,05,01,37,7.20
2015,10,05,01,38,7.20
2015,10,05,01,39,7.20
2015,10,05,01,40,7.20
2015,10,05,01,41,7.20
2015,10,05,01,42,7.20
2015,10,05,01,43,7.10
2015,10,05,01,44,7.10
2015,10,05,01,45,7.10
2015,10,05,01,46,7.10
2015,10,05,01,47,7.10
2015,10,05,01,48,7.10
2015,10,05,01,49,7.00
2015,10,05,01,50,7.00
2015,10,05,01,51,6.90
2015,10,05,01,52,6.90
2015,10,05,01,53,6.90
2015,10,05,01,54,6.90
2015,10,05,01,55,6.90
2015,10,05,01,56,6.90
2015,10,05,01,57,6.90
2015,10,05,01,58,7.00
2015,10,05,01,59,7.00
2015,10,05,02,00,7.10
2015,10,05,02,01,7.10
2015,10,05,02,02,7.20
2015,10,05,02,03,7.20
2015,10,05,02,04,7.20
2015,10,05,02,05,7.20
2015,10,05,02,06,7.20
2015,10,05,02,07,7.20
2015,10,05,02,08,7.20
2015,10,05,02,09,7.20
2015,10,05,02,10,7.20
2015,10,05,02,11,7.20
2015,10,05,02,12,7.20
2015,10,05,02,13,7.20
2015,10,05,02,14,7.20
2015,10,05,02,15,7.30
2015,10,05,02,16,7.30
2015,10,05,02,17,7.30
2015,10,05,02,18,7.20
2015,10,05,02,19,7.20
2015,10,05,02,20,7.20
2015,10,05,02,21,7.20
2015,10,05,02,22,7.10
2015,10,05,02,23,7.10
2015,10,05,02,24,7.10
2015,10,05,02,25,7.00
2015,10,05,02,26,7.00
2015,10,05,02,27,7.00
2015,10,05,02,28,6.90
2015,10,05,02,29,6.90
2015,10,05,02,30,6.90
2015,10,05,02,31,6.90
2015,10,05,02,32,6.90
2015,10,05,02,33,6.90
2015,10,05,02,34,6.80
2015,10,05,02,35,6.80
2015,10,05,02,36,6.80
2015,10,05,02,37,6.80
2015,10,05,02,38,6.70
2015,10,05,02,39,6.70
2015,10,05,02,40,6.70
2015,10,05,02,41,6.70
2015,10,05,02,42,6.70
2015,10,05,02,43,6.70
2015,10,05,02,44,6.70
2015,10,05,02,45,6.70
2015,10,05,02,46,6.70
2015,10,05,02,47,6.70
2015,10,05,02,48,6.70
2015,10,05,02,49,6.70
2015,10,05,02,50,6.60
2015,10,05,02,51,6.60
2015,10,05,02,52,6.60
2015,10,05,02,53,6.60
2015,10,05,02,54,6.50
2015,10,05,02,55,6.50
2015,10,05,02,56,6.50
2015,10,05,02,57,6.40
2015,10,05,02,58,6.40
2015,10,05,02,59,6.40
2015,10,05,03,00,6.40
2015,10,05,03,01,6.40
2015,10,05,03,02,6.40
2015,10,05,03,03,6.40
2015,10,05,03,04,6.40
2015,10,05,03,05,6.40
2015,10,05,03,06,6.30
2015,10,05,03,07,6.30
2015,10,05,03,08,6.30
2015,10,05,03,09,6.30
2015,10,05,03,10,6.30
2015,10,05,03,11,6.30
2015,10,05,03,12,6.30
2015,10,05,03,13,6.30
2015,10,05,03,14,6.30
2015,10,05,03,15,6.30
2015,10,05,03,16,6.30
2015,10,05,03,17,6.30
2015,10,05,03,18,6.30
2015,10,05,03,19,6.30
2015,10,05,03,20,6.30
2015,10,05,03,21,6.30
2015,10,05,03,22,6.30
2015,10,05,03,23,6.20
2015,10,05,03,24,6.20
2015,10,05,03,25,6.20
2015,10,05,03,26,6.20
2015,10,05,03,27,6.20
2015,10,05,03,28,6.10
2015,10,05,03,29,6.10
2015,10,05,03,30,6.10
2015,10,05,03,31,6.10
2015,10,05,03,32,6.10
2015,10,05,03,33,6.00
2015,10,05,03,34,6.00
2015,10,05,03,35,6.00
2015,10,05,03,36,5.90
2015,10,05,03,37,5.90
2015,10,05,03,38,5.90
2015,10,05,03,39,5.90
2015,10,05,03,40,5.90
2015,10,05,03,41,5.90
2015,10,05,03,42,5.90
2015,10,05,03,43,5.80
2015,10,05,03,44,5.80
2015,10,05,03,45,5.80
2015,10,05,03,46,5.80
2015,10,05,03,47,5.80
2015,10,05,03,48,5.80
2015,10,05,03,49,5.80
2015,10,05,03,50,5.80
2015,10,05,03,51,5.80
2015,10,05,03,52,5.80
2015,10,05,03,53,5.70
2015,10,05,03,54,5.70
2015,10,05,03,55,5.70
2015,10,05,03,56,5.70
2015,10,05,03,57,5.70
2015,10,05,03,58,5.70
2015,10,05,03,59,5.70
2015,10,05,04,00,5.70
2015,10,05,04,01,5.70
2015,10,05,04,02,5.70
2015,10,05,04,03,5.60
2015,10,05,04,04,5.60
2015,10,05,04,05,5.70
2015,10,05,04,06,5.70
2015,10,05,04,07,5.70
2015,10,05,04,08,5.70
2015,10,05,04,09,5.80
2015,10,05,04,10,5.80
2015,10,05,04,11,5.80
2015,10,05,04,12,5.80
2015,10,05,04,13,5.80
2015,10,05,04,14,5.80
2015,10,05,04,15,5.80
2015,10,05,04,16,5.80
2015,10,05,04,17,5.70
2015,10,05,04,18,5.70
2015,10,05,04,19,5.70
2015,10,05,04,20,5.70
2015,10,05,04,21,5.70
2015,10,05,04,22,5.70
2015,10,05,04,23,5.70
2015,10,05,04,24,5.70
2015,10,05,04,25,5.70
2015,10,05,04,26,5.70
2015,10,05,04,27,5.60
2015,10,05,04,28,5.60
2015,10,05,04,29,5.60
2015,10,05,04,30,5.60
2015,10,05,04,31,5.60
2015,10,05,04,32,5.60
2015,10,05,04,33,5.60
2015,10,05,04,34,5.60
2015,10,05,04,35,5.60
2015,10,05,04,36,5.60
2015,10,05,04,37,5.60
2015,10,05,04,38,5.60
2015,10,05,04,39,5.60
2015,10,05,04,40,5.60
2015,10,05,04,41,5.60
2015,10,05,04,42,5.50
2015,10,05,04,43,5.50
2015,10,05,04,44,5.50
2015,10,05,04,45,5.40
2015,10,05,04,46,5.40
2015,10,05,04,47,5.40
2015,10,05,04,48,5.40
2015,10,05,04,49,5.40
2015,10,05,04,50,5.30
2015,10,05,04,51,5.30
2015,10,05,04,52,5.30
2015,10,05,04,53,5.30
2015,10,05,04,54,5.30
2015,10,05,04,55,5.30
2015,10,05,04,56,5.30
2015,10,05,04,57,5.30
2015,10,05,04,58,5.20
2015,10,05,04,59,5.20
2015,10,05,05,00,5.20
2015,10,05,05,01,5.20
2015,10,05,05,02,5.20
2015,10,05,05,03,5.20
2015,10,05,05,04,5.10
2015,10,05,05,05,5.10
2015,10,05,05,06,5.10
2015,10,05,05,07,5.10
2015,10,05,05,08,5.10
2015,10,05,05,09,5.10
2015,10,05,05,10,5.10
2015,10,05,05,11,5.10
2015,10,05,05,12,5.10
2015,10,05,05,13,5.10
2015,10,05,05,14,5.10
2015,10,05,05,15,5.10
2015,10,05,05,16,5.10
2015,10,05,05,17,5.10
2015,10,05,05,18,5.10
2015,10,05,05,19,5.10
2015,10,05,05,20,5.10
2015,10,05,05,21,5.10
2015,10,05,05,22,5.10
2015,10,05,05,23,5.00
2015,10,05,05,24,5.00
2015,10,05,05,25,5.00
2015,10,05,05,26,5.00
2015,10,05,05,27,4.90
2015,10,05,05,28,4.90
2015,10,05,05,29,4.90
2015,10,05,05,30,4.90
2015,10,05,05,31,4.90
2015,10,05,05,32,4.90
2015,10,05,05,33,4.90
2015,10,05,05,34,4.90
2015,10,05,05,35,4.90
2015,10,05,05,36,4.90
2015,10,05,05,37,4.90
2015,10,05,05,38,4.90
2015,10,05,05,39,4.90
2015,10,05,05,40,4.90
2015,10,05,05,41,4.90
2015,10,05,05,42,4.90
2015,10,05,05,43,4.90
2015,10,05,05,44,4.90
2015,10,05,05,45,4.90
2015,10,05,05,46,4.90
2015,10,05,05,47,4.90
2015,10,05,05,48,4.90
2015,10,05,05,49,4.90
2015,10,05,05,50,4.90
2015,10,05,05,51,4.90
2015,10,05,05,52,4.90
2015,10,05,05,53,4.90
2015,10,05,05,54,4.90
2015,10,05,05,55,4.90
2015,10,05,05,56,5.00
2015,10,05,05,57,5.00
2015,10,05,05,58,5.10
2015,10,05,05,59,5.10
2015,10,05,06,00,5.10
2015,10,05,06,01,5.20
2015,10,05,06,02,5.20
2015,10,05,06,03,5.20
2015,10,05,06,04,5.20
2015,10,05,06,05,5.20
2015,10,05,06,06,5.20
2015,10,05,06,07,5.20
2015,10,05,06,08,5.20
2015,10,05,06,09,5.20
2015,10,05,06,10,5.20
2015,10,05,06,11,5.10
2015,10,05,06,12,5.10
2015,10,05,06,13,5.10
2015,10,05,06,14,5.10
2015,10,05,06,15,5.10
2015,10,05,06,16,5.10
2015,10,05,06,17,5.10
2015,10,05,06,18,5.10
2015,10,05,06,19,5.10
2015,10,05,06,20,5.10
2015,10,05,06,21,5.10
2015,10,05,06,22,5.10
2015,10,05,06,23,5.10
2015,10,05,06,24,5.10
2015,10,05,06,25,5.10
2015,10,05,06,26,5.10
2015,10,05,06,27,5.10
2015,10,05,06,28,5.10
2015,10,05,06,29,5.10
2015,10,05,06,30,5.10
2015,10,05,06,31,5.20
2015,10,05,06,32,5.20
2015,10,05,06,33,5.20
2015,10,05,06,34,5.20
2015,10,05,06,35,5.20
2015,10,05,06,36,5.20
2015,10,05,06,37,5.20
2015,10,05,06,38,5.20
2015,10,05,06,39,5.20
2015,10,05,06,40,5.20
2015,10,05,06,41,5.30
2015,10,05,06,42,5.30
2015,10,05,06,43,5.30
2015,10,05,06,44,5.40
2015,10,05,06,45,5.40
2015,10,05,06,46,5.40
2015,10,05,06,47,5.40
2015,10,05,06,48,5.40
2015,10,05,06,49,5.40
2015,10,05,06,50,5.40
2015,10,05,06,51,5.40
2015,10,05,06,52,5.40
2015,10,05,06,53,5.40
2015,10,05,06,54,5.40
2015,10,05,06,55,5.30
2015,10,05,06,56,5.30
2015,10,05,06,57,5.30
2015,10,05,06,58,5.30
2015,10,05,06,59,5.30
2015,10,05,07,00,5.30
2015,10,05,07,01,5.30
2015,10,05,07,02,5.20
2015,10,05,07,03,5.20
2015,10,05,07,04,5.20
2015,10,05,07,05,5.20
2015,10,05,07,06,5.20
2015,10,05,07,07,5.20
2015,10,05,07,08,5.30
2015,10,05,07,09,5.30
2015,10,05,07,10,5.30
2015,10,05,07,11,5.30
2015,10,05,07,12,5.30
2015,10,05,07,13,5.30
2015,10,05,07,14,5.30
2015,10,05,07,15,5.30
2015,10,05,07,16,5.30
2015,10,05,07,17,5.30
2015,10,05,07,18,5.30
2015,10,05,07,19,5.30
2015,10,05,07,20,5.30
2015,10,05,07,21,5.30
2015,10,05,07,22,5.30
2015,10,05,07,23,5.30
2015,10,05,07,24,5.40
2015,10,05,07,25,5.40
2015,10,05,07,26,5.40
2015,10,05,07,27,5.30
2015,10,05,07,28,5.30
2015,10,05,07,29,5.30
2015,10,05,07,30,5.30
2015,10,05,07,31,5.30
2015,10,05,07,32,5.30
2015,10,05,07,33,5.30
2015,10,05,07,34,5.30
2015,10,05,07,35,5.30
2015,10,05,07,36,5.30
2015,10,05,07,37,5.30
2015,10,05,07,38,5.30
2015,10,05,07,39,5.20
2015,10,05,07,40,5.20
2015,10,05,07,41,5.20
2015,10,05,07,42,5.20
2015,10,05,07,43,5.30
2015,10,05,07,44,5.30
2015,10,05,07,45,5.30
2015,10,05,07,46,5.20
2015,10,05,07,47,5.20
2015,10,05,07,48,5.20
2015,10,05,07,49,5.20
2015,10,05,07,50,5.20
2015,10,05,07,51,5.20
2015,10,05,07,52,5.20
2015,10,05,07,53,5.20
2015,10,05,07,54,5.20
2015,10,05,07,55,5.20
2015,10,05,07,56,5.20
2015,10,05,07,57,5.20
2015,10,05,07,58,5.20
2015,10,05,07,59,5.20
2015,10,05,08,00,5.20
2015,10,05,08,01,5.20
2015,10,05,08,02,5.20
2015,10,05,08,03,5.20
2015,10,05,08,04,5.20
2015,10,05,08,05,5.20
2015,10,05,08,06,5.20
2015,10,05,08,07,5.20
2015,10,05,08,08,5.20
2015,10,05,08,09,5.30
2015,10,05,08,10,5.30
2015,10,05,08,11,5.30
2015,10,05,08,12,5.30
2015,10,05,08,13,5.30
2015,10,05,08,14,5.40
2015,10,05,08,15,5.40
2015,10,05,08,16,5.40
2015,10,05,08,17,5.40
2015,10,05,08,18,5.50
2015,10,05,08,19,5.50
2015,10,05,08,20,5.50
2015,10,05,08,21,5.60
2015,10,05,08,22,5.60
2015,10,05,08,23,5.70
2015,10,05,08,24,5.80
2015,10,05,08,25,5.80
2015,10,05,08,26,5.90
2015,10,05,08,27,5.90
2015,10,05,08,28,6.00
2015,10,05,08,29,6.10
2015,10,05,08,30,6.10
2015,10,05,08,31,6.10
2015,10,05,08,32,6.10
2015,10,05,08,33,6.10
2015,10,05,08,34,6.10
2015,10,05,08,35,6.10
2015,10,05,08,36,6.10
2015,10,05,08,37,6.10
2015,10,05,08,38,6.10
2015,10,05,08,39,6.20
2015,10,05,08,40,6.20
2015,10,05,08,41,6.20
2015,10,05,08,42,6.20
2015,10,05,08,43,6.20
2015,10,05,08,44,6.20
2015,10,05,08,45,6.20
2015,10,05,08,46,6.30
2015,10,05,08,47,6.40
2015,10,05,08,48,6.50
2015,10,05,08,49,6.60
2015,10,05,08,50,6.60
2015,10,05,08,51,6.70
2015,10,05,08,52,6.80
2015,10,05,08,53,6.90
2015,10,05,08,54,6.90
2015,10,05,08,55,7.00
2015,10,05,08,56,7.00
2015,10,05,08,57,7.10
2015,10,05,08,58,7.10
2015,10,05,08,59,7.10
2015,10,05,09,00,7.20
2015,10,05,09,01,7.20
2015,10,05,09,02,7.20
2015,10,05,09,03,7.30
2015,10,05,09,04,7.40
2015,10,05,09,05,7.40
2015,10,05,09,06,7.50
2015,10,05,09,07,7.60
2015,10,05,09,08,7.70
2015,10,05,09,09,7.70
2015,10,05,09,10,7.80
2015,10,05,09,11,7.90
2015,10,05,09,12,8.00
2015,10,05,09,13,8.10
2015,10,05,09,14,8.20
2015,10,05,09,15,8.30
2015,10,05,09,16,8.30
2015,10,05,09,17,8.40
2015,10,05,09,18,8.50
2015,10,05,09,19,8.50
2015,10,05,09,20,8.60
2015,10,05,09,21,8.60
2015,10,05,09,22,8.70
2015,10,05,09,23,8.70
2015,10,05,09,24,8.80
2015,10,05,09,25,8.80
2015,10,05,09,26,8.90
2015,10,05,09,27,9.00
2015,10,05,09,28,9.10
2015,10,05,09,29,9.20
2015,10,05,09,30,9.30
2015,10,05,09,31,9.30
2015,10,05,09,32,9.40
2015,10,05,09,33,9.40
2015,10,05,09,34,9.40
2015,10,05,09,35,9.40
2015,10,05,09,36,9.40
2015,10,05,09,37,9.40
2015,10,05,09,38,9.50
2015,10,05,09,39,9.50
2015,10,05,09,40,9.50
2015,10,05,09,41,9.50
2015,10,05,09,42,9.50
2015,10,05,09,43,9.60
2015,10,05,09,44,9.60
2015,10,05,09,45,9.60
2015,10,05,09,46,9.60
2015,10,05,09,47,9.60
2015,10,05,09,48,9.70
2015,10,05,09,49,9.70
2015,10,05,09,50,9.70
2015,10,05,09,51,9.80
2015,10,05,09,52,9.80
2015,10,05,09,53,9.80
2015,10,05,09,54,9.90
2015,10,05,09,55,9.90
2015,10,05,09,56,10.00
2015,10,05,09,57,10.10
2015,10,05,09,58,10.10
2015,10,05,09,59,10.20
2015,10,05,10,00,10.20
2015,10,05,10,01,10.30
2015,10,05,10,02,10.30
2015,10,05,10,03,10.40
2015,10,05,10,04,10.40
2015,10,05,10,05,10.40
2015,10,05,10,06,10.50
2015,10,05,10,07,10.50
2015,10,05,10,08,10.60
2015,10,05,10,09,10.60
2015,10,05,10,10,10.70
2015,10,05,10,11,10.70
2015,10,05,10,12,10.70
2015,10,05,10,13,10.70
2015,10,05,10,14,10.80
2015,10,05,10,15,10.80
2015,10,05,10,16,10.80
2015,10,05,10,17,10.80
2015,10,05,10,18,10.80
2015,10,05,10,19,10.90
2015,10,05,10,20,10.90
2015,10,05,10,21,10.90
2015,10,05,10,22,11.00
2015,10,05,10,23,11.00
2015,10,05,10,24,11.10
2015,10,05,10,25,11.10
2015,10,05,10,26,11.10
2015,10,05,10,27,11.20
2015,10,05,10,28,11.30
2015,10,05,10,29,11.30
2015,10,05,10,30,11.40
2015,10,05,10,31,11.50
2015,10,05,10,32,11.50
2015,10,05,10,33,11.60
2015,10,05,10,34,11.60
2015,10,05,10,35,11.60
2015,10,05,10,36,11.70
2015,10,05,10,37,11.70
2015,10,05,10,38,11.70
2015,10,05,10,39,11.70
2015,10,05,10,40,11.80
2015,10,05,10,41,11.90
2015,10,05,10,42,12.00
2015,10,05,10,43,12.00
2015,10,05,10,44,12.10
2015,10,05,10,45,12.20
2015,10,05,10,46,12.30
2015,10,05,10,47,12.40
2015,10,05,10,48,12.50
2015,10,05,10,49,12.70
2015,10,05,10,50,12.70
2015,10,05,10,51,12.80
2015,10,05,10,52,12.90
2015,10,05,10,53,12.90
2015,10,05,10,54,13.00
2015,10,05,10,55,13.00
2015,10,05,10,56,13.10
2015,10,05,10,57,13.10
2015,10,05,10,58,13.20
2015,10,05,10,59,13.30
2015,10,05,11,00,13.30
2015,10,05,11,01,13.40
2015,10,05,11,02,13.50
2015,10,05,11,03,13.60
2015,10,05,11,04,13.70
2015,10,05,11,05,13.80
2015,10,05,11,06,13.80
2015,10,05,11,07,13.90
2015,10,05,11,08,13.90
2015,10,05,11,09,14.00
2015,10,05,11,10,14.00
2015,10,05,11,11,14.10
2015,10,05,11,12,14.10
2015,10,05,11,13,14.10
2015,10,05,11,14,14.20
2015,10,05,11,15,14.20
2015,10,05,11,16,14.20
2015,10,05,11,17,14.30
2015,10,05,11,18,14.30
2015,10,05,11,19,14.30
2015,10,05,11,20,14.40
2015,10,05,11,21,14.40
2015,10,05,11,22,14.40
2015,10,05,11,23,14.50
2015,10,05,11,24,14.50
2015,10,05,11,25,14.50
2015,10,05,11,26,14.60
2015,10,05,11,27,14.60
2015,10,05,11,28,14.70
2015,10,05,11,29,14.70
2015,10,05,11,30,14.80
2015,10,05,11,31,14.80
2015,10,05,11,32,14.80
2015,10,05,11,33,14.90
2015,10,05,11,34,14.90
2015,10,05,11,35,15.00
2015,10,05,11,36,15.00
2015,10,05,11,37,15.10
2015,10,05,11,38,15.10
2015,10,05,11,39,15.20
2015,10,05,11,40,15.10
2015,10,05,11,41,15.10
2015,10,05,11,42,15.10
2015,10,05,11,43,15.10
2015,10,05,11,44,15.10
2015,10,05,11,45,15.10
2015,10,05,11,46,15.10
2015,10,05,11,47,15.10
2015,10,05,11,48,15.10
2015,10,05,11,49,15.20
2015,10,05,11,50,15.20
2015,10,05,11,51,15.20
2015,10,05,11,52,15.30
2015,10,05,11,53,15.30
2015,10,05,11,54,15.30
2015,10,05,11,55,15.30
2015,10,05,11,56,15.30
2015,10,05,11,57,15.30
2015,10,05,11,58,15.30
2015,10,05,11,59,15.30
2015,10,05,12,00,15.30
2015,10,05,12,01,15.30
2015,10,05,12,02,15.40
2015,10,05,12,03,15.40
2015,10,05,12,04,15.40
2015,10,05,12,05,15.40
2015,10,05,12,06,15.40
2015,10,05,12,07,15.50
2015,10,05,12,08,15.50
2015,10,05,12,09,15.60
2015,10,05,12,10,15.60
2015,10,05,12,11,15.60
2015,10,05,12,12,15.70
2015,10,05,12,13,15.70
2015,10,05,12,14,15.80
2015,10,05,12,15,15.80
2015,10,05,12,16,15.80
2015,10,05,12,17,15.90
2015,10,05,12,18,15.90
2015,10,05,12,19,16.00
2015,10,05,12,20,16.00
2015,10,05,12,21,16.00
2015,10,05,12,22,16.10
2015,10,05,12,23,16.10
2015,10,05,12,24,16.10
2015,10,05,12,25,16.10
2015,10,05,12,26,16.10
2015,10,05,12,27,16.10
2015,10,05,12,28,16.00
2015,10,05,12,29,16.10
2015,10,05,12,30,16.00
2015,10,05,12,31,16.00
2015,10,05,12,32,16.00
2015,10,05,12,33,16.10
2015,10,05,12,34,16.10
2015,10,05,12,35,16.10
2015,10,05,12,36,16.10
2015,10,05,12,37,16.10
2015,10,05,12,38,16.10
2015,10,05,12,39,16.10
2015,10,05,12,40,16.20
2015,10,05,12,41,16.20
2015,10,05,12,42,16.20
2015,10,05,12,43,16.30
2015,10,05,12,44,16.30
2015,10,05,12,45,16.30
2015,10,05,12,46,16.40
2015,10,05,12,47,16.40
2015,10,05,12,48,16.40
2015,10,05,12,49,16.40
2015,10,05,12,50,16.40
2015,10,05,12,51,16.50
2015,10,05,12,52,16.50
2015,10,05,12,53,16.50
2015,10,05,12,54,16.50
2015,10,05,12,55,16.50
2015,10,05,12,56,16.50
2015,10,05,12,57,16.50
2015,10,05,12,58,16.50
2015,10,05,12,59,16.50
2015,10,05,13,00,16.50
2015,10,05,13,01,16.50
2015,10,05,13,02,16.50
2015,10,05,13,03,16.50
2015,10,05,13,04,16.60
2015,10,05,13,05,16.60
2015,10,05,13,06,16.60
2015,10,05,13,07,16.70
2015,10,05,13,08,16.70
2015,10,05,13,09,16.70
2015,10,05,13,10,16.70
2015,10,05,13,11,16.70
2015,10,05,13,12,16.70
2015,10,05,13,13,16.70
2015,10,05,13,14,16.70
2015,10,05,13,15,16.60
2015,10,05,13,16,16.60
2015,10,05,13,17,16.60
2015,10,05,13,18,16.60
2015,10,05,13,19,16.60
2015,10,05,13,20,16.60
2015,10,05,13,21,16.60
2015,10,05,13,22,16.60
2015,10,05,13,23,16.60
2015,10,05,13,24,16.60
2015,10,05,13,25,16.70
2015,10,05,13,26,16.70
2015,10,05,13,27,16.80
2015,10,05,13,28,16.80
2015,10,05,13,29,16.80
2015,10,05,13,30,16.80
2015,10,05,13,31,16.80
2015,10,05,13,32,16.80
2015,10,05,13,33,16.80
2015,10,05,13,34,16.80
2015,10,05,13,35,16.80
2015,10,05,13,36,16.80
2015,10,05,13,37,16.80
2015,10,05,13,38,16.80
2015,10,05,13,39,16.80
2015,10,05,13,40,16.80
2015,10,05,13,41,16.90
2015,10,05,13,42,16.90
2015,10,05,13,43,16.90
2015,10,05,13,44,17.00
2015,10,05,13,45,17.00
2015,10,05,13,46,17.00
2015,10,05,13,47,17.10
2015,10,05,13,48,17.10
2015,10,05,13,49,17.10
2015,10,05,13,50,17.10
2015,10,05,13,51,17.10
2015,10,05,13,52,17.10
2015,10,05,13,53,17.10
2015,10,05,13,54,17.10
2015,10,05,13,55,17.00
2015,10,05,13,56,17.00
2015,10,05,13,57,17.00
2015,10,05,13,58,17.00
2015,10,05,13,59,17.10
2015,10,05,14,00,17.10
2015,10,05,14,01,17.20
2015,10,05,14,02,17.20
2015,10,05,14,03,17.20
2015,10,05,14,04,17.20
2015,10,05,14,05,17.20
2015,10,05,14,06,17.20
2015,10,05,14,07,17.20
2015,10,05,14,08,17.20
2015,10,05,14,09,17.20
2015,10,05,14,10,17.20
2015,10,05,14,11,17.20
2015,10,05,14,12,17.20
2015,10,05,14,13,17.30
2015,10,05,14,14,17.30
2015,10,05,14,15,17.30
2015,10,05,14,16,17.30
2015,10,05,14,17,17.30
2015,10,05,14,18,17.30
2015,10,05,14,19,17.30
2015,10,05,14,20,17.30
2015,10,05,14,21,17.30
2015,10,05,14,22,17.30
2015,10,05,14,23,17.30
2015,10,05,14,24,17.40
2015,10,05,14,25,17.30
2015,10,05,14,26,17.30
2015,10,05,14,27,17.30
2015,10,05,14,28,17.30
2015,10,05,14,29,17.30
2015,10,05,14,30,17.30
2015,10,05,14,31,17.40
2015,10,05,14,32,17.40
2015,10,05,14,33,17.40
2015,10,05,14,34,17.50
2015,10,05,14,35,17.50
2015,10,05,14,36,17.50
2015,10,05,14,37,17.50
2015,10,05,14,38,17.40
2015,10,05,14,39,17.40
2015,10,05,14,40,17.40
2015,10,05,14,41,17.40
2015,10,05,14,42,17.40
2015,10,05,14,43,17.40
2015,10,05,14,44,17.50
2015,10,05,14,45,17.50
2015,10,05,14,46,17.50
2015,10,05,14,47,17.60
2015,10,05,14,48,17.60
2015,10,05,14,49,17.60
2015,10,05,14,50,17.60
2015,10,05,14,51,17.60
2015,10,05,14,52,17.60
2015,10,05,14,53,17.60
2015,10,05,14,54,17.60
2015,10,05,14,55,17.70
2015,10,05,14,56,17.70
2015,10,05,14,57,17.70
2015,10,05,14,58,17.80
2015,10,05,14,59,17.80
2015,10,05,15,00,17.80
2015,10,05,15,01,17.90
2015,10,05,15,02,17.90
2015,10,05,15,03,18.00
2015,10,05,15,04,18.00
2015,10,05,15,05,18.00
2015,10,05,15,06,18.00
2015,10,05,15,07,18.00
2015,10,05,15,08,18.00
2015,10,05,15,09,18.10
2015,10,05,15,10,18.10
2015,10,05,15,11,18.10
2015,10,05,15,12,18.20
2015,10,05,15,13,18.10
2015,10,05,15,14,18.10
2015,10,05,15,15,18.10
2015,10,05,15,16,18.10
2015,10,05,15,17,18.00
2015,10,05,15,18,17.90
2015,10,05,15,19,17.90
2015,10,05,15,20,17.90
2015,10,05,15,21,17.90
2015,10,05,15,22,17.90
2015,10,05,15,23,17.90
2015,10,05,15,24,17.80
2015,10,05,15,25,17.90
2015,10,05,15,26,17.90
2015,10,05,15,27,17.90
2015,10,05,15,28,17.90
2015,10,05,15,29,17.90
2015,10,05,15,30,17.90
2015,10,05,15,31,17.90
2015,10,05,15,32,17.90
2015,10,05,15,33,17.90
2015,10,05,15,34,17.80
2015,10,05,15,35,17.80
2015,10,05,15,36,17.80
2015,10,05,15,37,17.90
2015,10,05,15,38,17.90
2015,10,05,15,39,17.90
2015,10,05,15,40,17.90
2015,10,05,15,41,17.90
2015,10,05,15,42,17.90
2015,10,05,15,43,17.90
2015,10,05,15,44,17.90
2015,10,05,15,45,17.90
2015,10,05,15,46,17.90
2015,10,05,15,47,17.90
2015,10,05,15,48,17.90
2015,10,05,15,49,17.90
2015,10,05,15,50,17.90
2015,10,05,15,51,18.00
2015,10,05,15,52,18.00
2015,10,05,15,53,18.10
2015,10,05,15,54,18.10
2015,10,05,15,55,18.10
2015,10,05,15,56,18.10
2015,10,05,15,57,18.10
2015,10,05,15,58,18.10
2015,10,05,15,59,18.10
2015,10,05,16,00,18.20
2015,10,05,16,01,18.20
2015,10,05,16,02,18.20
2015,10,05,16,03,18.20
2015,10,05,16,04,18.20
2015,10,05,16,05,18.20
2015,10,05,16,06,18.10
2015,10,05,16,07,18.10
2015,10,05,16,08,18.10
2015,10,05,16,09,18.10
2015,10,05,16,10,18.10
2015,10,05,16,11,18.10
2015,10,05,16,12,18.10
2015,10,05,16,13,18.00
2015,10,05,16,14,18.00
2015,10,05,16,15,18.00
2015,10,05,16,16,18.00
2015,10,05,16,17,18.00
2015,10,05,16,18,17.90
2015,10,05,16,19,17.90
2015,10,05,16,20,17.90
2015,10,05,16,21,17.90
2015,10,05,16,22,17.90
2015,10,05,16,23,17.90
2015,10,05,16,24,17.90
2015,10,05,16,25,18.00
2015,10,05,16,26,17.90
2015,10,05,16,27,18.00
2015,10,05,16,28,17.90
2015,10,05,16,29,17.90
2015,10,05,16,30,17.90
2015,10,05,16,31,18.00
2015,10,05,16,32,18.00
2015,10,05,16,33,18.00
2015,10,05,16,34,18.00
2015,10,05,16,35,18.00
2015,10,05,16,36,18.10
2015,10,05,16,37,18.10
2015,10,05,16,38,18.00
2015,10,05,16,39,18.00
2015,10,05,16,40,18.00
2015,10,05,16,41,18.00
2015,10,05,16,42,18.00
2015,10,05,16,43,18.00
2015,10,05,16,44,17.90
2015,10,05,16,45,17.90
2015,10,05,16,46,17.90
2015,10,05,16,47,17.90
2015,10,05,16,48,17.90
2015,10,05,16,49,17.90
2015,10,05,16,50,17.90
2015,10,05,16,51,17.90
2015,10,05,16,52,17.90
2015,10,05,16,53,17.90
2015,10,05,16,54,17.80
2015,10,05,16,55,17.80
2015,10,05,16,56,17.90
2015,10,05,16,57,17.90
2015,10,05,16,58,17.90
2015,10,05,16,59,17.90
2015,10,05,17,00,17.90
2015,10,05,17,01,17.90
2015,10,05,17,02,17.90
2015,10,05,17,03,17.90
2015,10,05,17,04,17.90
2015,10,05,17,05,17.90
2015,10,05,17,06,17.90
2015,10,05,17,07,17.90
2015,10,05,17,08,17.90
2015,10,05,17,09,17.80
2015,10,05,17,10,17.80
2015,10,05,17,11,17.80
2015,10,05,17,12,17.80
2015,10,05,17,13,17.80
2015,10,05,17,14,17.80
2015,10,05,17,15,17.80
2015,10,05,17,16,17.80
2015,10,05,17,17,17.70
2015,10,05,17,18,17.70
2015,10,05,17,19,17.70
2015,10,05,17,20,17.70
2015,10,05,17,21,17.70
2015,10,05,17,22,17.60
2015,10,05,17,23,17.60
2015,10,05,17,24,17.60
2015,10,05,17,25,17.60
2015,10,05,17,26,17.50
2015,10,05,17,27,17.50
2015,10,05,17,28,17.50
2015,10,05,17,29,17.40
2015,10,05,17,30,17.40
2015,10,05,17,31,17.40
2015,10,05,17,32,17.30
2015,10,05,17,33,17.30
2015,10,05,17,34,17.30
2015,10,05,17,35,17.30
2015,10,05,17,36,17.20
2015,10,05,17,37,17.20
2015,10,05,17,38,17.20
2015,10,05,17,39,17.20
2015,10,05,17,40,17.20
2015,10,05,17,41,17.20
2015,10,05,17,42,17.10
2015,10,05,17,43,17.10
2015,10,05,17,44,17.10
2015,10,05,17,45,17.00